Location: Newark
(34.9471°N, 136.1778°E)
Time: 17:52:16
(UTC+00:00)

LilacSat-2 - Pass Details

Date: 22 February 2020
Orbit: 514 x 534 km, 97.5° (Epoch: 05 April)

Event Time Altitude Azimuth Distance (km) Brightness Sun altitude
Rises 20:29:17 0° 16° (NNE) 2,648 ? -13.9°
Reaches altitude 10° 20:31:25 10° 20° (NNE) 1,759 ? -13.4°
Maximum altitude 20:35:09 59° 100° (E) 607 ? -12.7°
Drops below altitude 10° 20:38:54 10° 181° (S) 1,758 ? -11.9°
Sets 20:41:01 0° 185° (S) 2,645 ? -11.5°
